COSMOS 2535 DEB, 44640

Orbit data source: Space-Track

COSMOS 2535 DEB, 44640 is space debris in SSO originally from a launch on Wed, 10 Jul 2019 UTC launched from the Plesetsk Missile And Space Complex (PKMTR). Debris objects in space refer to the collection of defunct objects orbiting the Earth. Examples of debris include non-operational satellites, rocket bodies, and fragments generated from explosions, collisions, or faulty payload assembly.

Loading next visibility...
Identifier
44640, 2019-039L
Orbit
SSO
Last TLE update
1 day ago
Origin
Manufacturer
Unknown
Mission
Spacecraft
Bus & Motor
Unknown
Mass
Unknown
Launch date (UTC)
2019-07-10 (6 years ago)
Launch vehicle
Unknown
Launch site
Plesetsk Missile And Space Complex (PKMTR)
Object type
Payload
Rocket body
Debris
Shape & HBR
Unknown
Radar Cross Section
Small (<0.1 m²)

Expand to show TLE details & history

TLE from 1 day ago
0 COSMOS 2535 DEB
1 44640U 19039L   25126.76041421  .00002089  00000-0  29030-3 0  9997
2 44640  97.7301 121.2879 0059370 315.7587  43.8886 14.77708018300437
Epoch: 2025-05-06T18:14Z
Definitive object data (Epoch: 2025-05-06T18:14:59.787Z)
Latitude
0.00001°
Longitude
-17.3162°
Altitude
609.691 km
Speed
7.57 km/s
True Right ascension
08h 05m 09s
True Declination
0° 00' 00"
Sunlit
Object was in daylight at TLE epoch
Visualization TLE readout
Latitude
66.73743°
Longitude
-177.69317°
Altitude
687.403 km
Speed
7.498 km/s
Apparent Right ascension
22h 37m 58s
Apparent Declination
17° 47' 51"
Sunlit
Object is in daylight
Visualization observer readout
Local Sidereal Time
11:19:54
Azimuth
11.721° NNE
Elevation
-31.463°
Doppler factor
1
Orbital elements
Apogee altitude
675.233 km
Perigee altitude
591.976 km
Semi-major axis
7,011.741 km
Eccentricity
0.005937
Inclination
97.7301°
RAAN
121.2879°
Arg. of periapsis
315.7587°
True anomaly
44.36277°
Mean anomaly
43.8886°
Eccentric anomaly
44.12543°
Mean motion
3.69662 °/min
BSTAR
0.0002903
Orbital period
97.39 mins
Loading maneuver chart data...
Loading SW <> Apogee altitude chart data...

COSMOS 2535 DEB Visibility forecast

Observer location: undefined°, undefined°

Span
Click to sort rows by Start time (UTC) header in descending order
Start Az.
Max El. time (UTC)
Max El. Az.
Max El.
End time (UTC)
End Az.
5 mins2025-05-08 11:28:32.675Z53.909° ENE2025-05-08 11:31:32.675Z101.621° ESE19.083°2025-05-08 11:33:32.675Z131.844° SE
7 mins2025-05-08 13:04:32.675Z348.4° N2025-05-08 13:07:32.675Z291.439° WNW31.403°2025-05-08 13:11:32.675Z223.475° SW
7 mins2025-05-09 00:00:32.675Z193.105° SSW2025-05-09 00:03:32.675Z270.099° WNW36.708°2025-05-09 00:07:32.675Z335.875° NNW
|